TimeCDT,TemperatureF,Dew PointF,Humidity,Sea Level PressureIn,VisibilityMPH,Wind Direction,Wind SpeedMPH,Gust SpeedMPH,PrecipitationIn,Events,Conditions,WindDirDegrees,DateUTC
12:44 AM,37.4,33.8,87,30.14,-9999.0,ENE,8.1,-,N/A,,Overcast,60,2013-04-22 05:44:00
12:52 AM,37.9,34.0,86,30.17,-9999.0,ENE,8.1,-,N/A,,Overcast,70,2013-04-22 05:52:00
1:27 AM,37.4,33.8,87,30.12,-9999.0,East,13.8,-,0.00,Snow,Light Snow,80,2013-04-22 06:27:00
1:36 AM,33.8,30.2,87,30.12,-9999.0,ENE,11.5,-,0.01,Snow,Snow,60,2013-04-22 06:36:00
1:52 AM,33.1,30.9,92,30.15,-9999.0,ENE,12.7,-,0.03,Snow,Snow,70,2013-04-22 06:52:00
2:03 AM,33.8,30.2,87,30.11,-9999.0,East,15.0,-,0.02,Snow,Snow,90,2013-04-22 07:03:00
2:37 AM,33.8,32.0,93,30.06,-9999.0,East,18.4,-,0.08,Snow,Light Snow,90,2013-04-22 07:37:00
2:52 AM,33.1,32.0,96,30.10,-9999.0,East,13.8,-,0.08,,Overcast,80,2013-04-22 07:52:00
3:07 AM,33.8,32.0,93,30.07,-9999.0,East,13.8,-,N/A,,Overcast,90,2013-04-22 08:07:00
3:52 AM,33.1,32.0,96,30.11,-9999.0,East,11.5,-,N/A,,Overcast,90,2013-04-22 08:52:00
4:52 AM,33.1,30.9,92,30.11,-9999.0,East,11.5,-,0.02,Snow,Light Snow,90,2013-04-22 09:52:00
5:02 AM,33.8,32.0,93,30.08,-9999.0,ENE,9.2,-,0.00,Snow,Light Snow,70,2013-04-22 10:02:00
5:12 AM,32.0,30.2,93,30.07,-9999.0,ENE,13.8,-,0.00,,Overcast,60,2013-04-22 10:12:00
5:52 AM,32.0,30.0,92,30.12,-9999.0,ENE,15.0,-,0.00,,Overcast,60,2013-04-22 10:52:00
6:52 AM,30.9,28.9,92,30.15,-9999.0,NE,13.8,-,0.02,Snow,Light Snow,40,2013-04-22 11:52:00
7:52 AM,28.9,27.0,92,30.19,-9999.0,NE,16.1,-,0.09,Snow,Heavy Snow,40,2013-04-22 12:52:00
8:21 AM,28.4,26.6,93,30.13,-9999.0,NE,19.6,26.5,0.08,Snow,Snow,40,2013-04-22 13:21:00
8:47 AM,26.6,24.8,93,30.15,-9999.0,NNE,12.7,24.2,0.10,Snow,Snow,30,2013-04-22 13:47:00
8:52 AM,27.0,25.0,92,30.21,-9999.0,NNE,17.3,24.2,0.10,Snow,Light Snow,30,2013-04-22 13:52:00
9:07 AM,26.6,24.8,93,30.15,-9999.0,NNE,16.1,27.6,0.00,Snow,Light Snow,30,2013-04-22 14:07:00
9:14 AM,26.6,23.0,86,30.16,-9999.0,NE,18.4,25.3,0.00,Snow,Light Snow,40,2013-04-22 14:14:00
9:25 AM,26.6,23.0,86,30.16,-9999.0,NNE,12.7,27.6,0.00,Snow,Light Snow,30,2013-04-22 14:25:00
9:42 AM,26.6,23.0,86,30.17,-9999.0,NNE,20.7,27.6,0.00,,Overcast,30,2013-04-22 14:42:00
9:52 AM,26.1,23.0,88,30.25,-9999.0,NNE,12.7,26.5,0.00,,Overcast,20,2013-04-22 14:52:00
10:35 AM,26.6,23.0,86,30.19,-9999.0,NNE,18.4,25.3,0.01,Snow,Heavy Snow,20,2013-04-22 15:35:00
10:43 AM,26.6,23.0,86,30.18,-9999.0,NNE,18.4,24.2,0.02,Snow,Heavy Snow,30,2013-04-22 15:43:00
10:52 AM,26.1,23.0,88,30.26,-9999.0,NNE,17.3,24.2,0.04,Snow,Snow,30,2013-04-22 15:52:00
11:22 AM,26.6,23.0,86,30.20,-9999.0,NNE,17.3,23.0,0.02,Snow,Light Snow,20,2013-04-22 16:22:00
11:34 AM,26.6,23.0,86,30.20,-9999.0,NNE,18.4,-,0.02,Snow,Light Snow,20,2013-04-22 16:34:00
11:52 AM,27.0,21.9,81,30.29,-9999.0,North,19.6,25.3,0.02,Snow,Light Snow,10,2013-04-22 16:52:00
12:52 PM,28.0,23.0,81,30.31,-9999.0,North,21.9,31.1,0.00,,Overcast,360,2013-04-22 17:52:00
1:52 PM,28.9,23.0,78,30.32,-9999.0,North,21.9,28.8,0.00,,Overcast,10,2013-04-22 18:52:00
2:52 PM,30.0,24.1,79,30.32,-9999.0,North,19.6,26.5,0.00,Snow,Light Snow,360,2013-04-22 19:52:00
3:20 PM,30.2,23.0,75,30.26,-9999.0,North,20.7,27.6,0.00,Snow,Light Snow,350,2013-04-22 20:20:00
3:43 PM,30.2,24.8,80,30.26,-9999.0,North,18.4,25.3,0.00,,Overcast,350,2013-04-22 20:43:00
3:52 PM,30.0,24.1,79,30.35,-9999.0,North,23.0,27.6,0.00,,Overcast,350,2013-04-22 20:52:00
4:52 PM,30.0,23.0,75,30.35,-9999.0,North,20.7,29.9,N/A,,Overcast,350,2013-04-22 21:52:00
5:44 PM,28.4,24.8,86,30.27,-9999.0,North,18.4,25.3,0.00,Snow,Light Snow,360,2013-04-22 22:44:00
5:52 PM,30.0,24.1,79,30.35,-9999.0,North,17.3,26.5,0.00,,Overcast,360,2013-04-22 22:52:00
6:11 PM,28.4,24.8,86,30.27,-9999.0,North,18.4,25.3,0.00,Snow,Light Snow,360,2013-04-22 23:11:00
6:52 PM,28.9,23.0,78,30.39,-9999.0,North,13.8,-,0.00,,Overcast,360,2013-04-22 23:52:00
7:52 PM,28.0,23.0,81,30.40,-9999.0,North,13.8,-,N/A,,Overcast,350,2013-04-23 00:52:00
8:52 PM,27.0,21.9,81,30.44,-9999.0,NNW,12.7,-,0.00,,Overcast,340,2013-04-23 01:52:00
9:07 PM,26.6,21.2,80,30.33,-9999.0,North,15.0,-,N/A,,Overcast,360,2013-04-23 02:07:00
9:15 PM,26.6,21.2,80,30.32,-9999.0,North,13.8,-,N/A,,Overcast,10,2013-04-23 02:15:00
9:34 PM,26.6,21.2,80,30.34,-9999.0,North,11.5,-,N/A,,Scattered Clouds,350,2013-04-23 02:34:00
9:52 PM,26.1,19.9,78,30.46,-9999.0,North,11.5,19.6,N/A,,Mostly Cloudy,350,2013-04-23 02:52:00
10:43 PM,24.8,19.4,80,30.37,-9999.0,NNW,6.9,-,N/A,,Scattered Clouds,340,2013-04-23 03:43:00
10:52 PM,24.1,19.0,81,30.48,-9999.0,NNW,5.8,-,N/A,,Partly Cloudy,340,2013-04-23 03:52:00
11:52 PM,21.0,17.1,85,30.45,-9999.0,NNW,8.1,-,N/A,,Clear,330,2013-04-23 04:52:00